Starlink 32717

operational
NORAD ID: 62491 Int'l Des: 2025-003 Owner: SPXS Country: US Constellation: starlink
LEOCIRCULAR

Starlink 32717について

説明を読み込み中...

リアルタイム位置

3D地球を読み込み中...

次回通過

高度履歴

Altitude vs Time

uPlot chart will show altitude changes over time

軌道要素

1 62491U 25003E 25301.35064861 .00030304 00000-0 11055-2 0 9990
2 62491 42.9970 316.2114 0000830 265.9723 94.1034 15.27602703 46439
Epoch: Oct 28, 2025 • Age: 30 hours

現在のステータス

高度 485.7 km
速度 7.63 km/s
衛星直下点 39.95°N, 166.93°E
打ち上げ日 Jan 6, 2025
運用期間 0.8 years
タイプ internet

技術仕様

分類 Payload
質量 730.00 kg
乾燥質量 700.00 kg
総質量 730.00 kg
長さ 0.30 m
直径 4.10 m
スパン 29.00 m
形状 Box + pan
製造者 SPXS
バスタイプ Starlink V2M
フェーズステータス In Orbit
所有者/国 SPXS/US

大規模コンステレーション

Loading constellations...